Location: Unspecified
(0.0000°N, 0.0000°E)
Time: 08:13:04
(UTC+02:00)

Vanguard 2 Rocket - All Passes

Search period start: 23 July 2018 00:00
Search period end: 02 August 2018 00:00
Orbit: 554 x 3327 km, 32.9° (Epoch: 22 July)

Date Brightness Start Highest point End Pass type
(mag) Time Alt. Az. Time Alt. Az. Time Alt. Az.
23 Jul - 00:44:03 10° W 00:47:15 21° NW 00:50:19 10° NNE night (unlit)
23 Jul - 07:31:53 10° N 07:38:50 17° NNE 07:47:50 10° ENE visible
23 Jul - 09:42:23 10° NW 09:56:10 54° NE 10:15:33 10° ESE daylight
23 Jul - 11:57:00 10° WNW 12:14:40 71° SW 12:34:43 10° SE daylight
23 Jul - 14:18:01 10° W 14:34:49 32° SSW 14:49:39 10° SSE daylight
23 Jul - 16:49:36 10° SW 16:56:28 13° SSW 17:02:20 10° S daylight
23 Jul - 21:29:12 10° SSW 21:34:34 21° SSE 21:38:26 10° ESE visible
23 Jul - 23:43:24 10° WSW 23:48:10 49° NW 23:51:58 10° NE night (unlit)
24 Jul - 08:43:18 10° NNW 08:54:42 38° NE 09:11:27 10° E daylight
24 Jul - 10:56:17 10° NW 11:12:17 88° SW 11:33:04 10° SE daylight
24 Jul - 13:14:22 10° W 13:31:59 42° SSW 13:49:24 10° SE daylight
24 Jul - 15:41:52 10° WSW 15:53:31 18° SSW 16:03:18 10° SSE daylight
24 Jul - 18:14:22 10° S 18:15:34 10° S 18:16:44 10° S daylight
24 Jul - 20:28:58 10° SSW 20:34:14 17° SSE 20:38:13 10° SE visible
24 Jul - 22:42:59 10° SW 22:49:03 75° SSE 22:53:12 10° ENE visible
25 Jul - 07:44:53 10° NNW 07:53:37 25° NE 08:06:07 10° E daylight
25 Jul - 09:56:19 10° NW 10:10:18 72° NE 10:30:37 10° ESE daylight
25 Jul - 12:12:04 10° WNW 12:29:12 54° SSW 12:48:35 10° SE daylight
25 Jul - 14:35:35 10° WSW 14:50:23 24° SSW 15:03:30 10° SSE daylight
25 Jul - 17:07:32 10° SSW 17:13:05 12° S 17:17:54 10° SSE daylight
25 Jul - 19:28:07 10° SSW 19:33:24 14° SSE 19:37:32 10° SE daylight
25 Jul - 21:42:30 10° SW 21:49:34 42° SSE 21:54:05 10° E visible
25 Jul - 23:58:56 10° W 00:02:26 20° NW 00:05:26 10° NNE night (unlit)
26 Jul - 06:47:40 10° N 06:52:46 14° NE 06:59:10 10° ENE visible
26 Jul - 08:56:58 10° NW 09:08:52 53° NE 09:27:18 10° ESE daylight
26 Jul - 11:10:54 10° WNW 11:26:39 68° SW 11:47:09 10° SE daylight
26 Jul - 13:30:56 10° W 13:47:12 32° SSW 14:03:09 10° SSE daylight
26 Jul - 16:00:33 10° SW 16:10:01 15° SSW 16:18:03 10° SSE daylight
26 Jul - 18:26:14 10° SSW 18:31:54 13° S 18:36:30 10° SSE daylight
26 Jul - 20:41:49 10° SSW 20:49:35 29° SSE 20:54:35 10° E visible
26 Jul - 22:57:36 10° WSW 23:03:23 46° NW 23:07:25 10° NE visible
27 Jul - 07:58:14 10° NNW 08:07:56 36° NE 08:23:02 10° E daylight
27 Jul - 10:10:34 10° NW 10:24:31 86° SW 10:45:05 10° SE daylight
27 Jul - 12:27:50 10° W 12:44:09 41° SSW 13:02:19 10° SE daylight
27 Jul - 14:53:53 10° WSW 15:06:35 19° SSW 15:17:48 10° SSE daylight
27 Jul - 17:22:52 10° SSW 17:29:43 14° S 17:35:22 10° SSE daylight
27 Jul - 19:40:45 10° SSW 19:49:03 23° SSE 19:54:38 10° ESE daylight
27 Jul - 21:56:31 10° SW 22:04:12 87° SE 22:08:53 10° NE visible
28 Jul - 07:00:13 10° N 07:07:24 23° NE 07:17:42 10° E visible
28 Jul - 09:10:56 10° NW 09:22:57 74° NE 09:42:19 10° ESE daylight
28 Jul - 11:26:01 10° WNW 11:41:21 51° SSW 12:00:58 10° SE daylight
28 Jul - 13:48:23 10° WSW 14:03:02 24° SSW 14:17:09 10° SSE daylight
28 Jul - 16:17:56 10° SSW 16:26:48 15° S 16:34:14 10° SSE daylight
28 Jul - 18:39:08 10° SSW 18:47:55 20° SSE 18:54:10 10° ESE daylight
28 Jul - 20:55:22 10° SW 21:04:34 53° SSE 21:09:55 10° ENE visible
28 Jul - 23:13:14 10° W 23:17:31 21° NW 23:20:51 10° N visible
29 Jul - 06:04:08 10° NNE 06:07:00 12° NE 06:10:19 10° NE visible
29 Jul - 08:11:54 10° NW 08:22:00 53° NE 08:38:50 10° ESE daylight
29 Jul - 10:25:14 10° WNW 10:39:00 65° SSW 10:59:06 10° SE daylight
29 Jul - 12:44:24 10° W 12:59:37 31° SSW 13:16:07 10° SSE daylight
29 Jul - 15:12:07 10° SW 15:23:18 17° S 15:33:04 10° SSE daylight
29 Jul - 17:36:46 10° SSW 17:46:06 18° S 17:53:08 10° SE daylight
29 Jul - 19:54:00 10° SW 20:04:22 37° SSE 20:10:33 10° E daylight
29 Jul - 22:11:14 10° WSW 22:18:27 45° NW 22:23:01 10° NE visible
30 Jul - 07:13:27 10° NNW 07:21:36 34° NE 07:34:37 10° E visible
30 Jul - 09:25:14 10° WNW 09:37:12 83° SW 09:56:43 10° SE daylight
30 Jul - 11:41:50 10° W 11:56:31 38° SSW 12:14:42 10° SE daylight
30 Jul - 14:06:27 10° SW 14:19:29 20° SSW 14:31:45 10° SSE daylight
30 Jul - 16:33:25 10° SSW 16:43:32 17° S 16:51:35 10° SE daylight
30 Jul - 18:52:19 10° SSW 19:03:34 30° SSE 19:10:40 10° E daylight
30 Jul - 21:09:29 10° SW 21:19:08 85° NW 21:24:34 10° NE visible
31 Jul - 06:15:49 10° N 06:21:31 20° NE 06:29:31 10° E visible
31 Jul - 08:25:53 10° NW 08:36:04 75° NE 08:53:48 10° ESE daylight
31 Jul - 10:40:26 10° W 10:53:52 48° SSW 11:12:52 10° SE daylight
31 Jul - 13:01:46 10° WSW 13:15:40 24° SSW 13:30:16 10° SSE daylight
31 Jul - 15:29:08 10° SW 15:40:13 17° S 15:49:38 10° SE daylight
31 Jul - 17:50:13 10° SSW 18:02:06 25° SSE 18:10:12 10° ESE daylight
31 Jul - 20:07:42 10° SW 20:19:17 63° SSE 20:25:41 10° ENE daylight
31 Jul - 22:26:55 10° W 22:32:30 23° NW 22:36:28 10° N visible
01 Aug - 07:27:06 10° NW 07:35:35 52° NE 07:50:23 10° ESE visible
01 Aug - 09:39:58 10° WNW 09:51:47 61° SSW 10:10:41 10° SE daylight
01 Aug - 11:58:25 10° WSW 12:12:11 29° SSW 12:28:32 10° SSE daylight
01 Aug - 14:24:17 10° SW 14:36:22 18° S 14:47:28 10° SSE daylight
01 Aug - 16:47:39 10° SSW 16:59:56 22° SSE 17:09:00 10° ESE daylight
01 Aug - 19:05:46 10° SW 19:18:49 46° SSE 19:26:19 10° E daylight
01 Aug - 21:24:17 10° WSW 21:33:18 46° NW 21:38:38 10° NNE visible
